Regional Weather Roundup
Issued by NWS Northern Indiana

Home | Current Version | Previous Version | Text Only | Print | Product List | Glossary Off
Versions: 1 2 3 4 5 6 7 8 9 10 11 12 13 14 15 16 17 18 19 20 21 22 23 24 25 26 27 28 29 30 31 32 33 34 35 36 37 38 39 40 41 42 43 44 45 46 47 48 49 50

000
ASUS43 KIWX 051900
RWRIWX

KIWX WEATHER ROUNDUP
NATIONAL WEATHER SERVICE NORTHERN INDIANA
300 PM EDT SUN JUL 05 2015

NOTE: "FAIR" INDICATES FEW OR NO CLOUDS BELOW 12,000 FEET WITH NO
SIGNIFICANT WEATHER AND/OR OBSTRUCTIONS TO VISIBILITY.

* THESE STATIONS ARE NOT UNDER NWS QUALITY CONTROL. THEY ALSO MAY NOT
  REPORT WEATHER SUCH AS PRECIPITATION OR FOG.

INZ001>027-052000-
NORTHERN INDIANA

CITY           SKY/WX    TMP DP  RH WIND       PRES   REMARKS
GARY*          MOSUNNY  N/A N/A N/A CALM      30.08F
SOUTH BEND     SUNNY     82  58  43 VRB3      30.09F
ELKHART*       MOSUNNY   82  55  39 CALM      30.10F
GOSHEN         SUNNY     80  60  50 SE3       30.10F
MONTICELLO*    SUNNY     80  61  52 S5        30.07F
ANGOLA*          N/A     81  75  83 S7        30.11F
FORT WAYNE     CLOUDY    81  58  45 VRB3      30.10F
PERU/GRISSOM   MOSUNNY   81  61  50 E1        30.08F

$$
INZ028>050-052000-
CENTRAL INDIANA

CITY           SKY/WX    TMP DP  RH WIND       PRES   REMARKS
LAFAYETTE      MOSUNNY   80  62  54 S3        30.07F
KOKOMO*        MOSUNNY   81  61  50 S6        30.08F
MUNCIE*        PTSUNNY   79  60  52 CALM      30.09F
INDIANAPOLIS   PTSUNNY   79  59  50 E6        30.07F

$$
MIZ043>046-050>051-056>058-064>065-071>073-077>080-052000-
SOUTHWEST LOWER MICHIGAN

CITY           SKY/WX    TMP DP  RH WIND       PRES   REMARKS
BATTLE CREEK   MOSUNNY   82  61  48 MISG      30.11F
BENTON HARBOR  SUNNY     80  59  48 NW7       30.09F
COLDWATER*     SUNNY     79  55  43 CALM      30.11F
HILLSDALE*     MOSUNNY   80  59  50 SE6       30.12F
HOLLAND        SUNNY     82  59  45 W7        30.10F
GRAND RAPIDS   PTSUNNY   80  60  50 SW7       30.10S
KALAMAZOO      SUNNY     82  59  45 S7        30.10F
STURGIS*       PTSUNNY   81  61  50 CALM      30.10F
THREE RIVERS*  FAIR      80  59  49 CALM      30.11F

$$
OHZ001>008-015>018-024>025-052000-
NORTHWEST OHIO

CITY           SKY/WX    TMP DP  RH WIND       PRES   REMARKS
DEFIANCE       MOSUNNY   81  55  40 VRB3      30.10F
FINDLAY        PTSUNNY   80  57  45 VRB3      30.09F
TOLEDO EXPRESS MOSUNNY   81  53  37 SE3       30.10F
TOLEDO METCALF MOSUNNY   82  58  43 NE7       30.11F
LIMA           CLOUDY    79  60  52 VRB5      30.10F

$$
AND FOR LAKE MICHIGAN COASTAL AND OPEN LAKE BUOY OBSERVATIONS

STATION/POSITION TEMP    WIND        PRES    VSBY  WAVE
                 AIR SEA DIR/SP/G                  HT/PER
                 (F)     (DEG/KT/KT) (MB)    (MI)  (FT/S)
CALUMET HARBOR    72      50/  8/  9   N/A
MICHIGAN CITY     70      20/  5/  6   N/A
BURNS HARBOR      73      40/  8/  9 1019.3S
SAINT JOSEPH      76     320/  2/  3   N/A
4 MI NW BRIDGMAN  69 67                N/A           0
MICHIGAN CITY     71 67   10/  4/  6   N/A           1

$$
&&


USA.gov is the U.S. government's official web portal to all federal, state and local government web resources and services.